{"data":{"norad_id":66934,"epoch":"2026-09-20T08:41:06.970272Z","epoch_age_seconds":95952,"freshness":"FRESH","line1":"1 66934U 25286K   26263.36188623  .00029783  00000+0  89037-3 0  9995","line2":"2 66934  53.1585 170.5548 0000982  96.5286 263.5828 15.34354800 45277","mean_motion":15.343548,"eccentricity":9.82e-5,"inclination_deg":53.1585,"raan_deg":170.5548,"arg_perigee_deg":96.5286,"mean_anomaly_deg":263.5828,"bstar":0.00089037,"rev_number":4527,"period_min":93.850522708307,"perigee_km":462.16580372607,"apogee_km":463.50937113504,"semimajor_km":6840.9745874306,"source":"CELESTRAK","updated_at":"2026-09-21T09:00:36.057484Z"}}